Buffalo, SD

3:04 PM MDT on August 27, 2016 (GMT -0600)
Buffalo

Weather History for K2WX - January, 2013

Change the Weather History Date:

Saturday, January 12, 2013

  Actual Average Record
Temperature  
Mean Temperature 3 °F 20 °F  
Max Temperature 9 °F 31 °F 46 °F (2001)
Min Temperature -4 °F 10 °F -24 °F (1998)
Degree Days  
Heating Degree Days 62 45  
Month to date heating degree days 500 540  
Since 1 July heating degree days 3502 3800  
Cooling Degree Days 0 0  
Month to date cooling degree days 0 0  
Year to date cooling degree days 0 0  
Moisture  
Dew Point -4 °F    
Average Humidity 71    
Maximum Humidity 79    
Minimum Humidity 63    
Precipitation  
Precipitation 0.00 in 0.01 in 0.07 in (2002)
Month to date precipitation 0.01 0.12  
Year to date precipitation 0.01 0.12  
Sea Level Pressure  
Sea Level Pressure 30.16 in    
Wind  
Wind Speed 20 mph (NW)    
Max Wind Speed 40 mph    
Max Gust Speed 48 mph    
T = Trace of Precipitation, MM = Missing Value Source: NWS Daily Summary

Daily Weather History Graph

Daily Weather History Graph

Search for Another Location

Airport or City:

Trip Planner

Search our weather history database for the weather conditions in past years. The results will help you decide how hot, cold, wet, or windy it might be!

Date:

Astronomy

Jan. 12, 2013 Rise Set
Actual Time 7:32 AM MST 4:33 PM MST
Civil Twilight 6:58 AM MST 5:06 PM MST
Nautical Twilight 6:21 AM MST 5:43 PM MST
Astronomical Twilight 5:46 AM MST 6:19 PM MST
Moon 7:47 AM MST (1/12) 6:11 PM MST (1/12)
Length of Visible Light 10h 08m
Length of Day
9h 01m
New Moon, 1% of the Moon is Illuminated
Jan 12
New Moon
Jan 18
First Quarter
Jan 26
Full
Feb 3
Last Quarter
Feb 10
New

Hourly Weather History & Observations

Time (MST) Temp. Windchill Dew Point Humidity Pressure Visibility Wind Dir Wind Speed Gust Speed Precip Events Conditions
12:56 AM 3.0 °F -23.7 °F -2.9 °F 76% 29.93 in - NW 36.8 mph 46.0 mph N/A   Unknown
1:56 AM 3.0 °F -23.7 °F -2.9 °F 76% 29.97 in - NW 36.8 mph 46.0 mph N/A   Unknown
2:56 AM 3.0 °F -21.7 °F -2.9 °F 76% 30.01 in - NW 29.9 mph 43.7 mph N/A   Unknown
3:56 AM 1.9 °F -23.6 °F -4.0 °F 76% 30.04 in - NW 31.1 mph 42.6 mph N/A   Unknown
4:56 AM 1.9 °F -23.9 °F -4.0 °F 76% 30.05 in - NW 32.2 mph 39.1 mph N/A   Unknown
5:56 AM 1.9 °F -23.6 °F -4.0 °F 76% 30.09 in - NW 31.1 mph 35.7 mph N/A   Unknown
6:56 AM 1.9 °F -22.0 °F -4.0 °F 76% 30.12 in - NW 26.5 mph 32.2 mph N/A   Unknown
7:56 AM 1.9 °F -22.0 °F -4.0 °F 76% 30.16 in - NW 26.5 mph 34.5 mph N/A   Unknown
8:56 AM 1.9 °F -21.6 °F -5.1 °F 72% 30.19 in - NW 25.3 mph 33.4 mph N/A   Unknown
9:56 AM 3.9 °F -18.1 °F -4.0 °F 70% 30.21 in - NW 23.0 mph - N/A   Unknown
10:56 AM 3.9 °F -16.6 °F -2.9 °F 73% 30.23 in - NW 19.6 mph - N/A   Unknown
11:56 AM 6.1 °F -14.3 °F -2.0 °F 69% 30.21 in - WNW 20.7 mph - N/A   Unknown
12:56 PM 7.0 °F -12.6 °F -4.0 °F 61% 30.21 in - NW 19.6 mph - N/A   Unknown
1:56 PM 8.1 °F -11.7 °F -2.9 °F 61% 30.19 in - NW 20.7 mph - N/A   Unknown
2:56 PM 8.1 °F -11.2 °F -2.9 °F 61% 30.20 in - NW 19.6 mph - N/A   Unknown
3:56 PM 7.0 °F -8.3 °F -2.0 °F 67% 30.22 in - NW 11.5 mph - N/A   Unknown
4:56 PM 6.1 °F -11.6 °F -2.9 °F 67% 30.22 in - NW 15.0 mph - N/A   Unknown
5:56 PM 3.9 °F -14.3 °F -4.0 °F 70% 30.23 in - NW 15.0 mph - N/A   Unknown
6:56 PM 1.9 °F -12.9 °F -5.1 °F 72% 30.24 in - NW 9.2 mph - N/A   Unknown
7:56 PM -2.9 °F -15.0 °F -8.0 °F 79% 30.25 in - West 5.8 mph - N/A   Unknown
8:56 PM -0.9 °F -14.1 °F -6.0 °F 79% 30.25 in - WSW 6.9 mph - N/A   Unknown
9:56 PM -0.0 °F -16.3 °F -6.0 °F 76% 30.23 in - West 10.4 mph - N/A   Unknown
10:56 PM 1.0 °F -12.9 °F -5.1 °F 75% 30.23 in - West 8.1 mph - N/A   Unknown
11:56 PM 1.9 °F -10.6 °F -4.0 °F 76% 30.22 in - West 6.9 mph - N/A   Unknown